カタログに戻る

RESOURCESAT 2

運用中科学SSO
NORAD 37387·PAYLOAD·🇮🇳 India

打ち上げ Apr 20, 2011 から Satish Dhawan Space Centre

Loading…

次のパス (今後24時間)

TLE

最新Source: Space-Track

元期: Sep 14, 2026, 14:46 UTC

1 37387U 11015A   26257.61585446  .00000046  00000-0  41078-4 0  9991
2 37387  98.7561 324.4021 0011191   5.6651 354.4651 14.21609581798883

AllMySatでRESOURCESAT 2をリアルタイム追跡

Download on the App Store